Location: Unspecified
(0.0000°N, 0.0000°E)
Time: 22:40:54
(UTC+00:00)

Tiros 1 despin weight - All Passes

Search period start: 15 May 2026 00:00
Search period end: 25 May 2026 00:00
Orbit: 555 x 591 km, 48.2° (Epoch: 14 May)

Date Brightness Start Highest point End Pass type
(mag) Time Alt. Az. Time Alt. Az. Time Alt. Az.
15 May - 02:10:04 10° SW 02:14:23 66° NW 02:18:38 10° NNE night (unlit)
15 May - 12:33:27 10° NNE 12:34:43 11° NE 12:35:58 10° ENE daylight
15 May - 14:11:02 10° NW 14:15:05 46° SW 14:19:11 10° SSE daylight
16 May - 00:33:00 10° S 00:35:46 16° SE 00:38:30 10° E night (unlit)
16 May - 02:12:14 10° WSW 02:16:09 33° NW 02:20:01 10° NNE night (unlit)
16 May - 12:33:17 10° N 12:36:31 21° NE 12:39:46 10° E daylight
16 May - 14:13:27 10° WNW 14:16:52 24° SW 14:20:19 10° S daylight
17 May - 00:33:43 10° SSW 00:37:34 30° SE 00:41:22 10° ENE night (unlit)
17 May - 02:15:01 10° W 02:17:56 18° NW 02:20:50 10° N night (unlit)
17 May - 12:34:20 10° NNW 12:38:17 41° NE 12:42:17 10° ESE daylight
17 May - 14:16:50 10° WSW 14:18:41 13° SW 14:20:33 10° SSW daylight
18 May - 00:35:02 10° SSW 00:39:20 60° SE 00:43:35 10° NE night (unlit)
18 May - 12:35:50 10° NW 12:40:02 85° NE 12:44:17 10° SE daylight
19 May - 00:36:45 10° SW 00:41:05 67° NW 00:45:22 10° NNE night (unlit)
19 May - 11:00:17 10° NE 11:01:25 11° NE 11:02:33 10° ENE daylight
19 May - 12:37:45 10° NW 12:41:47 46° SW 12:45:52 10° SSE daylight
19 May - 22:59:40 10° S 23:02:27 16° SE 23:05:11 10° E night (unlit)
20 May - 00:38:53 10° WSW 00:42:50 33° NW 00:46:44 10° NNE night (unlit)
20 May - 11:00:02 10° N 11:03:12 21° NE 11:06:25 10° E daylight
20 May - 12:40:10 10° WNW 12:43:33 24° SW 12:47:00 10° S daylight
20 May - 23:00:22 10° SSW 23:04:14 30° SE 23:08:03 10° ENE night (unlit)
21 May - 00:41:37 10° W 00:44:36 18° NW 00:47:33 10° N night (unlit)
21 May - 11:01:02 10° NNW 11:04:58 40° NE 11:08:56 10° ESE daylight
21 May - 12:43:31 10° WSW 12:45:21 13° SW 12:47:12 10° SSW daylight
21 May - 23:01:39 10° SSW 23:05:59 60° SE 23:10:15 10° NE night (unlit)
22 May - 11:02:31 10° NW 11:06:42 84° NE 11:10:55 10° SE daylight
22 May - 23:03:21 10° SW 23:07:42 68° NW 23:12:01 10° NNE night (unlit)
23 May - 09:27:03 10° NE 09:28:04 11° NE 09:29:04 10° ENE daylight
23 May - 11:04:25 10° NW 11:08:25 46° SW 11:12:29 10° SSE daylight
23 May - 21:26:17 10° S 21:29:03 16° SE 21:31:47 10° E night (unlit)
23 May - 23:05:27 10° WSW 23:09:26 34° NW 23:13:23 10° NNE night (unlit)
24 May - 09:26:41 10° N 09:29:51 21° NE 09:33:00 10° E daylight
24 May - 11:06:47 10° WNW 11:10:10 24° SW 11:13:35 10° S daylight
24 May - 21:26:56 10° S 21:30:48 30° SE 21:34:38 10° ENE night (unlit)
24 May - 23:08:09 10° W 23:11:10 18° NW 23:14:11 10° N night (unlit)
